ROMMA est une association bénévole à but non lucratif. Votre soutien est indispensable : ADHERER à ROMMA ou FAIRE un DON

Chambon - (38, Isère)

Oisans (2460 m)   Longitude: 06° 10' 42" E   Latitude: 45° 01' 32" N Station partenaire n°803
 

Détail journalier du     <<     >>

Température Humidité Vent Dir Rafale Dir. rafale Neige 1 Neige 2
Heure (°C) (%) (km/h) (km/h) (cm) (cm)
01:00 7.0504SE14SE03
02:00 7.0525OSO14OSO03
03:00 6.1544S12SSO03
04:00 6.1552ESE16SSE04
05:00 6.0585NNE13ESE03
06:00 5.7606N11NNE03
07:00 5.0633N7N04
08:00 5.1602NNE9NO04
09:00 5.6585N10NNE03
10:00 5.6574NNE9NNE04
11:00 7.0537NNE13NNE03
12:00 9.2483NNE13NNE02
13:00 8.3523N16ONO02
14:00 8.3586O14O02
15:00 8.9568S27S02
16:00 8.65810S27S03
17:00 10.14811SSO27SSO02
18:00 6.7665SSO22SSO03
19:00 5.7682SO18SO02
20:00 5.1733ESE13OSO03
21:00 5.0733ESE10O02
22:00 6.2554NE23SO02
23:00 5.0684SO23SO03
minuit 5.5624SSO9SO03

Graphique du 27-10-2019

 

Serveur OMMA